This is the latest recevied weather packets stored in our database for station/object S56VIL-11. If no packets are shown the sender has not sent any weather packets the latest 10 day(s).
| Time | Temp. | Humidity | Pressure | Rain* | Wind** | Luminosity | Snow |
|---|---|---|---|---|---|---|---|
| 1788354594 | 26.67° C | 56% | 1032.7 hPa | - | - | - | - |
| 1788352794 | 25.56° C | 57% | 1032.8 hPa | - | - | - | - |
| 1788351894 | 25.56° C | 57% | 1032.8 hPa | - | - | - | - |
| 1788350994 | 25.56° C | 57% | 1033 hPa | - | - | - | - |
| 1788349194 | 25.56° C | 57% | 1033.3 hPa | - | - | - | - |
| 1788348294 | 25° C | 58% | 1033.3 hPa | - | - | - | - |
| 1788347394 | 25° C | 58% | 1033.3 hPa | - | - | - | - |
| 1788346494 | 25.56° C | 57% | 1033.5 hPa | - | - | - | - |
| 1788345594 | 26.67° C | 59% | 1033.7 hPa | - | - | - | - |
| 1788344693 | 28.33° C | 57% | 1033.8 hPa | - | - | - | - |
| 1788343793 | 28.33° C | 57% | 1033.8 hPa | - | - | - | - |
| 1788342893 | 28.89° C | 57% | 1033.8 hPa | - | - | - | - |
| 1788341993 | 28.89° C | 57% | 1034 hPa | - | - | - | - |
| 1788341093 | 28.33° C | 58% | 1034 hPa | - | - | - | - |
| 1788340193 | 28.33° C | 58% | 1034.1 hPa | - | - | - | - |
| 1788339293 | 27.78° C | 58% | 1034.1 hPa | - | - | - | - |
| 1788338393 | 26.11° C | 59% | 1034 hPa | - | - | - | - |
| 1788337493 | 24.44° C | 59% | 1034 hPa | - | - | - | - |
| 1788336593 | 21.11° C | 61% | 1033.8 hPa | - | - | - | - |
| 1788335693 | 19.44° C | 62% | 1033.9 hPa | - | - | - | - |
| 1788334793 | 18.89° C | 62% | 1033.9 hPa | - | - | - | - |
| 1788333893 | 18.89° C | 62% | 1033.8 hPa | - | - | - | - |
| 1788332993 | 18.33° C | 62% | 1033.8 hPa | - | - | - | - |
| 1788332093 | 17.78° C | 63% | 1033.7 hPa | - | - | - | - |
| 1788331193 | 17.78° C | 63% | 1033.8 hPa | - | - | - | - |
* Rain since midnight (hover to see other rain measurements)
** Current wind speed in m/s (hover to see current wind gust speed)